Location: ?????
(37.7324°N, 23.9257°E)
Time: 21:32:47
(UTC+00:00)

USA 234 - Pass Details

Date: 29 November 2020
Orbit: 1098 x 1110 km, 123.0° (Epoch: 17 January)

Event Time Altitude Azimuth Distance (km) Brightness Sun altitude
Rises 04:04:58 0° 45° (NE) 3,937 6.6 -14.4°
Reaches altitude 10° 04:07:28 10° 47° (NE) 2,976 5.9 -14.0°
Maximum altitude 04:14:04 80° 134° (SE) 1,126 3.4 -12.7°
Drops below altitude 10° 04:20:37 10° 222° (SW) 2,960 5.3 -11.5°
Sets 04:23:05 0° 223° (SW) 3,914 5.9 -11.0°
